TimeMST,TemperatureF,Dew PointF,Humidity,Sea Level PressureIn,VisibilityMPH,Wind Direction,Wind SpeedMPH,Gust SpeedMPH,PrecipitationIn,Events,Conditions,WindDirDegrees,DateUTC
12:53 AM,62.1,32.0,32,29.63,10.0,WNW,5.8,-,N/A,,Clear,300,2013-05-29 07:53:00
1:53 AM,60.1,32.0,35,29.64,10.0,WNW,8.1,-,N/A,,Clear,290,2013-05-29 08:53:00
2:53 AM,60.1,30.9,33,29.65,10.0,WNW,5.8,-,N/A,,Clear,290,2013-05-29 09:53:00
3:53 AM,59.0,32.0,36,29.65,10.0,WNW,5.8,-,N/A,,Clear,290,2013-05-29 10:53:00
4:53 AM,57.9,32.0,37,29.65,10.0,WNW,5.8,-,N/A,,Clear,290,2013-05-29 11:53:00
5:53 AM,57.9,32.0,37,29.67,10.0,Calm,Calm,-,N/A,,Clear,0,2013-05-29 12:53:00
6:53 AM,60.1,32.0,35,29.68,10.0,WNW,6.9,-,N/A,,Clear,290,2013-05-29 13:53:00
7:53 AM,62.1,32.0,32,29.71,10.0,Variable,6.9,-,N/A,,Clear,0,2013-05-29 14:53:00
8:53 AM,64.0,30.0,28,29.71,10.0,Variable,5.8,-,N/A,,Clear,0,2013-05-29 15:53:00
9:53 AM,68.0,28.0,22,29.69,10.0,West,6.9,-,N/A,,Clear,280,2013-05-29 16:53:00
10:53 AM,71.1,28.0,20,29.67,10.0,Variable,5.8,-,N/A,,Clear,0,2013-05-29 17:53:00
11:53 AM,73.0,28.0,19,29.65,10.0,NNW,6.9,-,N/A,,Clear,330,2013-05-29 18:53:00
12:53 PM,75.9,25.0,15,29.62,10.0,Variable,3.5,-,N/A,,Clear,0,2013-05-29 19:53:00
1:53 PM,78.1,21.0,12,29.58,10.0,Calm,Calm,-,N/A,,Clear,0,2013-05-29 20:53:00
2:53 PM,82.0,21.0,10,29.54,10.0,WNW,10.4,16.1,N/A,,Clear,290,2013-05-29 21:53:00
3:53 PM,82.0,24.1,12,29.53,10.0,West,12.7,25.3,N/A,,Partly Cloudy,270,2013-05-29 22:53:00
4:53 PM,81.0,24.1,12,29.55,10.0,West,13.8,26.5,N/A,,Clear,280,2013-05-29 23:53:00
5:53 PM,79.0,23.0,13,29.57,10.0,WNW,15.0,24.2,N/A,,Clear,290,2013-05-30 00:53:00
6:53 PM,78.1,23.0,13,29.58,10.0,West,9.2,19.6,N/A,,Clear,280,2013-05-30 01:53:00
7:53 PM,75.9,24.1,15,29.59,10.0,West,11.5,19.6,N/A,,Clear,280,2013-05-30 02:53:00
8:53 PM,75.0,25.0,16,29.61,10.0,West,8.1,-,N/A,,Partly Cloudy,280,2013-05-30 03:53:00
9:53 PM,72.0,26.1,18,29.63,10.0,Calm,Calm,-,N/A,,Clear,0,2013-05-30 04:53:00
10:53 PM,70.0,27.0,20,29.62,10.0,Calm,Calm,-,N/A,,Clear,0,2013-05-30 05:53:00
11:53 PM,70.0,27.0,20,29.62,10.0,SW,3.5,-,N/A,,Clear,220,2013-05-30 06:53:00